This is the latest recevied weather packets stored in our database for station/object G6FJI-13. If no packets are shown the sender has not sent any weather packets the latest 10 day(s).
| Time | Temp. | Humidity | Pressure | Rain* | Wind** | Luminosity | Snow |
|---|---|---|---|---|---|---|---|
| 1777946728 | 7.78° C | 97% | 1017.3 hPa | 0 mm | - | 0 W/m² | - |
| 1777943774 | 7.78° C | 96% | 1017.7 hPa | 0 mm | - | 0 W/m² | - |
| 1777941375 | 8.33° C | 95% | 1017.5 hPa | 0 mm | - | 0 W/m² | - |
| 1777924527 | 12.78° C | 86% | 1018 hPa | 0 mm | - | 0 W/m² | - |
| 1777923327 | 12.78° C | 86% | 1018.1 hPa | 0 mm | - | 1 W/m² | - |
| 1777920285 | 13.33° C | 84% | 1017.6 hPa | 0 mm | - | 11 W/m² | - |
| 1777917332 | 13.33° C | 84% | 1017.2 hPa | 0 mm | - | 24 W/m² | - |
| 1777913015 | 13.89° C | 85% | 1017.5 hPa | 0 mm | - | 65 W/m² | - |
| 1777907590 | 12.78° C | 86% | 1018 hPa | 0 mm | - | 112 W/m² | - |
| 1777906979 | 12.78° C | 87% | 1018 hPa | 0 mm | - | 106 W/m² | - |
| 1777906396 | 12.78° C | 86% | 1017.9 hPa | 0 mm | - | 72 W/m² | - |
| 1777905762 | 13.89° C | 84% | 1017.9 hPa | 0 mm | - | 185 W/m² | - |
| 1777900984 | 12.78° C | 88% | 1017.9 hPa | 0 mm | - | 108 W/m² | - |
| 1777893788 | 13.33° C | 88% | 1018 hPa | 0 mm | - | 118 W/m² | - |
| 1777892481 | 13.33° C | 89% | 1018 hPa | 0 mm | - | 150 W/m² | - |
| 1777889527 | 11.67° C | 92% | 1018.1 hPa | 0 mm | - | 75 W/m² | - |
| 1777888883 | 11.67° C | 92% | 1017.9 hPa | 0 mm | - | 76 W/m² | - |
| 1777888327 | 11.67° C | 93% | 1017.9 hPa | 0 mm | - | 84 W/m² | - |
| 1777887149 | 11.11° C | 95% | 1018 hPa | 0 mm | - | 80 W/m² | - |
| 1777885929 | 11.11° C | 95% | 1017.8 hPa | 0 mm | - | 41 W/m² | - |
| 1777879933 | 10.56° C | 98% | 1017.1 hPa | 0 mm | - | 23 W/m² | - |
| 1777877535 | 10.56° C | 98% | 1016.6 hPa | 0 mm | - | 27 W/m² | - |
| 1777875143 | 11.11° C | 98% | 1016.2 hPa | 0 mm | - | 10 W/m² | - |
| 1777872602 | 11.11° C | 99% | 1015.9 hPa | 0 mm | - | 6 W/m² | - |
| 1777870856 | 11.11° C | 99% | 1015.5 hPa | 0 mm | - | 3 W/m² | - |
* Rain latest hour (hover to see other rain measurements)
** Current wind speed in m/s (hover to see current wind gust speed)